User: anonymous   Login
Location: Curupao
(10.4996°N, 66.6442°W)
Time: 12:46:47
(UTC+00:00)
Language:

Cosmos 2218 Rocket - Orbit

View from above orbital plane
View from above orbital plane
View from above satellite
View from above satellite

Ground track
Ground track

The orbit data is extracted from the following two-line orbital elements,

1 22208U 92073B   24199.20559156  .00000074  00000-0  61559-4 0  9994
2 22208  82.9169 259.2494 0034758  24.8624  29.3885 13.75302221591612
Epoch (UTC): 17 July 2024 04:56:03
Eccentricity: 0.0034758
inclination: 82.9169°
perigee height: 955 km
apogee height: 1006 km
right ascension of ascending node: 259.2494°
argument of perigee: 24.8624°
revolutions per day: 13.75302221
mean anomaly at epoch: 29.3885°
orbit number at epoch: 59161

The dashed part of the orbit path shows where the satellite is in the earth's shadow,  

DLR